Home   Weather   Macon   Past weeks
Flag for USA

Past Weather in Macon, Georgia, USA — Yesterday and Last 2 Weeks

Now
83 °F

Sunny.


Feels Like: 88 °F
Forecast: 95 / 74 °F
Wind: 6 mph from Southwest

Location: Middle Georgia Regional Airport

Current Time: Jul 18, 2019 at 9:40:29 am

Latest Report: Jul 18, 2019 at 8:53 am


Visibility: 10 mi

Pressure: 30.06 "Hg

Humidity: 68%

Dew Point: 71 °F

Location of MaconLocation

Past Weather in Macon — Graph

°F

Macon Temperature Yesterday

Maximum temperature yesterday: 98 °F (at 2:53 pm)
Minimum temperature yesterday: 75 °F (at 6:53 am)
Average temperature yesterday: 86 °F

High & Low Weather Summary for the Past Weeks

 TemperatureHumidityPressure
High98 °F (Jul 16, 2:53 pm)97% (Jul 5, 4:53 am)30.17 "Hg (Jul 5, 4:53 am)
Low72 °F (Jul 13, 5:53 am)32% (Jul 16, 2:53 pm)29.80 "Hg (Jul 8, 5:53 pm)
Average83 °F73%30.00 "Hg
* Reported Jul 3 7:53 am — Jul 18 7:53 am, Macon. Weather by CustomWeather, © 2019

Note: Actual official high and low records may vary slightly from our data, if they occured in-between our weather recording intervals... More about our weather records

Advertising

Macon Weather History for the Previous 24 Hours

Scroll right to see more
 ConditionsComfort  
Time TempWeatherWind HumidityBarometerVisibility
7:53 am
Thu, Jul 18
77 °FSunny.3 mph85%30.06 "Hg10 mi
6:53 am74 °FSunny.3 mph91%30.05 "Hg10 mi
5:53 am73 °FClear.No wind88%30.04 "Hg10 mi
4:53 am74 °FClear.No wind88%30.02 "Hg10 mi
3:53 am74 °FClear.No wind88%30.03 "Hg10 mi
2:53 am75 °FPassing clouds.No wind85%30.04 "Hg10 mi
1:53 am77 °FClear.3 mph82%30.04 "Hg10 mi
12:53 am76 °FClear.3 mph85%30.05 "Hg10 mi
11:53 pm
Wed, Jul 17
77 °FClear.3 mph82%30.05 "Hg10 mi
10:53 pm82 °FClear.No wind65%30.05 "Hg10 mi
9:53 pm84 °FClear.No wind61%30.03 "Hg10 mi
8:53 pm86 °FPassing clouds.7 mph55%30.03 "Hg10 mi
7:53 pm91 °FSunny.8 mph44%30.02 "Hg10 mi
6:53 pm96 °FPassing clouds.14 mph36%30.02 "Hg10 mi
5:53 pm96 °FSunny.9 mph35%30.01 "Hg10 mi
4:53 pm98 °FSunny.14 mph33%30.02 "Hg10 mi
3:53 pm98 °FSunny.17 mph34%30.03 "Hg10 mi
2:53 pm98 °FSunny.13 mph36%30.06 "Hg10 mi
1:53 pm96 °FPassing clouds.14 mph40%30.09 "Hg10 mi
12:53 pm96 °FSunny.8 mph41%30.10 "Hg10 mi
11:53 am93 °FSunny.10 mph44%30.11 "Hg10 mi
10:53 am91 °FSunny.9 mph50%30.11 "Hg10 mi
9:53 am88 °FSunny.10 mph57%30.11 "Hg10 mi
Weather by CustomWeather, © 2019

See weather overview